Temp
12 13 13 13 13 13 13 14 14 14 14 14 15 15 15 15 15 15 15 16 16 15 15 15 15 15 15 13 12 13 16 18 18 18 18 17 17 16 16 15 14 14 14 13 13
12 12 13 13 13 13 14 14 14 14 14 14 15 15 15 15 15 15 16 15 16 16 15 15 15 14 13 13 13 14 17 16 17 17 17 17 17 17 16 16 14 15 14 14 13
12 12 13 13 13 13 14 14 14 14 14 15 15 15 15 15 15 16 16 15 16 16 15 15 14 14 13 14 14 15 17 17 17 16 16 17 17 17 17 17 12 14 15 14 13
12 12 12 13 13 13 14 14 14 14 14 15 15 15 15 15 14 15 15 15 15 16 15 15 14 13 13 14 15 15 16 16 16 16 16 17 17 17 17 17 16 15 14 14 13
12 12 12 13 13 13 13 14 14 14 14 15 15 15 15 15 15 15 15 15 15 16 15 15 14 12 14 15 15 15 16 16 16 16 17 16 17 17 16 16 16 14 15 14 14
12 12 12 12 13 13 13 14 14 14 14 14 14 15 15 14 15 15 15 15 15 15 15 15 12 13 14 15 16 16 16 16 16 17 17 16 17 17 16 15 14 14 14 13 12
11 12 12 12 13 13 13 13 13 14 14 14 14 14 14 15 15 15 15 15 15 15 15 15 12 13 14 15 15 15 15 16 17 17 16 16 17 14 16 15 14 13 13 12 11
10 11 11 12 12 13 13 13 13 13 13 14 14 14 14 14 15 15 15 15 15 15 14 13 14 12 13 15 14 14 16 17 18 17 17 17 15 15 15 15 14 14 13 12 12
9 10 10 11 11 12 12 13 13 13 13 13 13 13 12 14 15 15 15 15 15 14 14 14 15 12 13 14 16 16 18 18 18 17 17 17 18 16 15 15 15 14 13 12 11
9 9 10 10 11 11 12 12 12 12 12 13 13 13 14 13 15 15 14 14 14 14 14 14 13 13 14 15 17 19 18 19 18 17 17 17 17 17 15 15 15 14 13 12 12
9 9 9 10 10 11 11 11 12 12 13 13 12 12 13 14 14 14 14 13 13 13 12 12 13 14 15 16 16 17 17 18 17 17 16 17 17 17 16 16 16 15 14 13 12
8 9 9 9 10 10 10 11 11 12 13 13 13 13 13 13 13 14 14 12 12 12 13 13 14 15 15 16 16 16 16 16 17 16 16 17 17 17 16 16 16 15 14 13 12
8 8 8 9 9 10 10 10 11 11 12 13 13 14 14 13 13 11 13 12 12 13 14 14 16 15 15 15 15 15 16 17 17 17 16 16 17 17 15 16 15 15 14 14 13
8 8 8 8 8 9 9 10 10 11 11 13 13 13 14 14 13 12 12 12 13 13 14 14 15 15 15 15 15 16 16 16 16 16 17 17 18 17 16 17 16 15 14 13 13
9 9 8 8 8 8 9 9 9 10 14 13 12 12 12 13 13 12 11 12 13 14 14 15 15 15 15 15 15 16 16 15 16 16 17 18 18 18 17 17 17 16 14 13 13
8 9 8 8 8 8 8 8 9 9 14 14 12 12 12 13 13 12 11 12 13 14 14 15 15 15 15 15 15 15 15 15 15 16 18 17 18 19 18 15 16 15 14 13 11
8 8 8 8 6 8 7 8 8 12 13 14 13 13 14 14 13 12 12 12 13 14 14 15 15 15 15 15 15 15 15 16 17 18 19 17 17 18 17 16 15 14 13 12 11
7 8 8 8 7 7 7 6 9 13 13 13 13 13 14 15 14 13 13 13 13 14 16 16 17 15 15 15 16 15 16 17 18 19 19 17 18 17 16 15 16 13 13 12 11
7 7 7 7 7 6 6 7 10 11 12 12 13 13 14 14 14 14 14 14 14 14 15 17 17 16 16 15 15 15 15 16 17 18 18 17 19 17 16 16 15 13 13 12 11
5 6 6 6 6 5 5 8 10 11 10 10 12 14 15 14 14 14 14 15 14 15 14 16 16 16 16 15 15 16 16 16 16 17 18 18 18 18 15 14 13 12 12 11 11
4 4 4 5 5 4 6 8 9 9 9 9 11 13 13 14 14 15 15 15 15 15 15 15 15 17 15 15 16 15 16 16 17 18 18 19 18 15 14 15 13 12 12 11 11
4 3 3 4 4 5 6 8 9 8 8 8 9 11 12 13 13 14 15 15 14 15 15 15 15 15 16 16 16 16 16 16 17 17 17 16 16 15 14 14 13 12 11 11 11
2 3 3 4 4 6 7 8 8 7 9 8 9 10 10 11 12 13 14 14 13 14 14 14 14 15 16 17 16 16 16 16 16 16 16 11 14 15 15 13 12 12 13 11 10
1 3 3 2 4 6 8 7 7 7 8 9 9 10 10 10 11 12 13 13 12 13 13 14 15 15 17 17 17 16 16 16 16 16 17 15 15 13 13 13 13 14 14 13 12
-0 2 2 4 4 5 5 7 7 7 7 8 8 9 10 10 10 11 12 13 12 12 12 13 13 14 15 16 15 17 16 16 16 16 17 17 15 15 10 12 14 14 14 12 11
-2 -0 0 2 3 4 5 5 6 7 8 8 8 9 9 9 10 11 12 12 13 12 12 12 13 14 15 16 16 15 16 16 16 16 16 17 16 13 11 12 14 13 14 12 10
-3 -2 -1 1 2 3 4 5 6 7 8 8 8 8 9 9 9 10 9 10 11 11 12 12 12 13 15 15 16 16 15 16 16 16 16 16 15 13 11 13 14 12 10 10 11
Height
3168 3168 3169 3169 3169 3170 3170 3170 3170 3170 3169 3169 3169 3168 3168 3168 3167 3167 3166 3167 3166 3166 3166 3167 3168 3171 3173 3176 3178 3178 3174 3170 3168 3173 3173 3175 3177 3176 3176 3173 3170 3169 3171 3172 3172
3166 3167 3167 3168 3168 3169 3169 3169 3169 3169 3168 3168 3168 3167 3167 3167 3167 3166 3167 3166 3166 3165 3166 3167 3169 3172 3175 3178 3181 3178 3175 3163 3174 3176 3177 3178 3179 3177 3174 3171 3176 3171 3167 3169 3171
3164 3165 3165 3166 3167 3167 3167 3167 3168 3167 3167 3167 3167 3167 3166 3166 3166 3165 3166 3166 3165 3165 3166 3167 3170 3172 3177 3180 3182 3180 3175 3173 3176 3178 3179 3178 3176 3175 3172 3171 3154 3153 3167 3167 3171
3162 3162 3163 3164 3165 3165 3165 3166 3166 3166 3166 3166 3166 3165 3165 3166 3170 3165 3165 3166 3166 3166 3166 3167 3170 3173 3178 3180 3181 3181 3179 3179 3179 3179 3179 3177 3176 3175 3173 3170 3172 3172 3165 3169 3171
3159 3159 3160 3161 3162 3162 3162 3163 3164 3164 3164 3164 3164 3164 3164 3165 3165 3164 3164 3165 3166 3166 3166 3168 3170 3174 3179 3180 3181 3180 3179 3179 3179 3178 3177 3176 3175 3173 3173 3171 3168 3168 3168 3170 3172
3157 3157 3158 3158 3159 3159 3160 3160 3161 3161 3161 3162 3162 3162 3163 3164 3164 3163 3163 3164 3165 3166 3166 3168 3172 3176 3179 3179 3180 3179 3178 3178 3177 3176 3175 3174 3172 3171 3170 3170 3169 3169 3170 3172 3172
3154 3154 3155 3155 3156 3157 3157 3157 3158 3158 3158 3159 3160 3160 3161 3162 3161 3161 3162 3162 3164 3165 3166 3167 3172 3176 3176 3178 3178 3178 3177 3176 3174 3174 3173 3171 3166 3159 3166 3167 3170 3170 3171 3173 3173
3150 3151 3152 3153 3153 3154 3154 3154 3155 3155 3156 3156 3157 3157 3157 3158 3159 3159 3160 3161 3162 3163 3165 3166 3167 3172 3176 3177 3175 3175 3176 3173 3169 3172 3172 3171 3165 3167 3167 3168 3171 3172 3172 3173 3171
3147 3148 3148 3149 3150 3151 3151 3152 3152 3153 3153 3153 3154 3155 3157 3155 3156 3157 3158 3159 3160 3161 3162 3163 3166 3170 3174 3174 3174 3172 3169 3164 3167 3170 3171 3171 3167 3165 3168 3169 3170 3171 3172 3172 3171
3144 3145 3145 3146 3147 3148 3149 3149 3149 3150 3150 3150 3151 3155 3152 3152 3152 3153 3155 3156 3158 3159 3161 3162 3165 3169 3170 3171 3167 3164 3162 3163 3168 3169 3169 3169 3166 3166 3167 3169 3170 3170 3170 3170 3170
3141 3142 3142 3143 3144 3145 3147 3148 3150 3148 3146 3148 3149 3149 3148 3148 3149 3150 3152 3154 3155 3158 3160 3161 3165 3164 3166 3167 3166 3165 3164 3164 3166 3168 3168 3166 3166 3165 3166 3168 3168 3169 3168 3168 3168
3138 3138 3139 3140 3141 3142 3143 3144 3144 3145 3143 3143 3143 3144 3144 3145 3147 3147 3150 3153 3153 3156 3159 3163 3160 3162 3164 3164 3165 3165 3165 3165 3165 3166 3167 3165 3163 3161 3160 3163 3165 3165 3167 3166 3166
3134 3135 3135 3136 3137 3138 3139 3140 3140 3140 3139 3140 3138 3139 3140 3142 3144 3145 3147 3150 3152 3155 3157 3158 3158 3158 3160 3161 3162 3162 3163 3162 3163 3163 3164 3163 3159 3156 3155 3157 3161 3163 3164 3164 3165
3130 3131 3132 3133 3136 3135 3136 3137 3138 3138 3138 3136 3133 3133 3135 3137 3138 3144 3141 3149 3151 3152 3154 3154 3155 3155 3157 3157 3160 3159 3160 3162 3162 3162 3158 3157 3153 3153 3154 3154 3155 3159 3160 3161 3161
3124 3126 3127 3128 3130 3132 3132 3134 3136 3138 3135 3131 3129 3128 3130 3135 3136 3136 3139 3144 3147 3149 3151 3151 3151 3152 3153 3154 3157 3158 3158 3160 3160 3159 3158 3155 3155 3148 3150 3150 3150 3154 3158 3159 3158
3118 3119 3120 3122 3124 3127 3130 3132 3135 3140 3128 3126 3126 3126 3129 3130 3133 3135 3135 3141 3145 3146 3146 3147 3147 3148 3150 3152 3154 3156 3158 3159 3158 3157 3152 3150 3149 3144 3147 3150 3149 3153 3155 3156 3155
3112 3114 3115 3117 3119 3122 3126 3130 3136 3128 3123 3123 3124 3126 3127 3128 3131 3131 3131 3134 3138 3141 3141 3143 3143 3145 3147 3149 3151 3153 3155 3153 3152 3147 3140 3143 3147 3146 3147 3147 3150 3153 3153 3155 3154
3106 3108 3110 3111 3114 3118 3123 3129 3126 3119 3119 3120 3122 3123 3124 3125 3127 3128 3130 3132 3133 3136 3135 3136 3137 3139 3141 3144 3146 3148 3149 3144 3139 3133 3133 3143 3140 3141 3144 3145 3146 3148 3152 3153 3154
3100 3102 3104 3106 3109 3114 3119 3121 3118 3118 3119 3118 3121 3120 3119 3120 3123 3124 3126 3127 3129 3132 3135 3131 3132 3134 3136 3140 3143 3143 3145 3145 3141 3138 3134 3136 3133 3136 3138 3141 3142 3145 3149 3150 3153
3095 3098 3099 3101 3104 3109 3113 3111 3114 3116 3115 3117 3117 3116 3115 3117 3119 3120 3121 3123 3125 3128 3131 3131 3130 3129 3133 3136 3138 3138 3141 3143 3141 3137 3132 3129 3130 3129 3133 3138 3140 3143 3145 3147 3149
3092 3096 3093 3096 3100 3103 3103 3107 3110 3111 3113 3115 3114 3114 3114 3113 3116 3114 3117 3119 3121 3124 3127 3129 3131 3126 3130 3132 3132 3135 3136 3137 3134 3132 3128 3125 3123 3127 3126 3136 3137 3140 3142 3144 3146
3087 3095 3089 3092 3096 3098 3099 3102 3106 3107 3108 3109 3111 3111 3113 3114 3114 3113 3113 3115 3117 3120 3123 3126 3127 3125 3125 3128 3129 3129 3131 3134 3131 3132 3130 3130 3133 3129 3133 3135 3135 3136 3139 3142 3145
3082 3089 3085 3088 3091 3094 3096 3098 3100 3102 3104 3105 3107 3109 3111 3112 3114 3112 3113 3113 3114 3118 3120 3122 3124 3123 3123 3124 3126 3126 3126 3128 3131 3132 3129 3137 3131 3127 3122 3131 3132 3133 3135 3139 3141
3079 3084 3085 3081 3085 3089 3091 3092 3094 3096 3099 3102 3104 3106 3107 3108 3110 3110 3111 3112 3114 3117 3116 3117 3119 3119 3113 3117 3117 3120 3123 3123 3126 3126 3123 3126 3123 3123 3119 3122 3122 3127 3132 3134 3136
3077 3081 3077 3081 3081 3084 3086 3088 3090 3092 3094 3097 3099 3100 3103 3106 3107 3108 3108 3110 3111 3112 3114 3118 3118 3117 3114 3115 3117 3115 3118 3121 3121 3123 3121 3119 3121 3126 3115 3128 3122 3124 3128 3132 3134
3074 3076 3075 3075 3075 3078 3081 3083 3085 3088 3091 3092 3094 3097 3099 3101 3103 3105 3107 3107 3108 3110 3112 3114 3115 3115 3112 3112 3113 3115 3116 3116 3116 3118 3118 3117 3117 3115 3105 3124 3123 3123 3126 3129 3131
3065 3067 3069 3072 3075 3077 3077 3079 3081 3084 3086 3089 3091 3093 3095 3097 3099 3101 3099 3100 3104 3104 3107 3111 3112 3113 3109 3109 3110 3110 3112 3114 3115 3116 3117 3118 3120 3117 3122 3118 3120 3122 3125 3127 3130
Wind_Speed
7 5 4 3 3 3 4 4 5 5 5 5 5 6 5 5 4 3 2 2 2 1 3 6 9 12 13 11 9 7 11 7 3 1 5 6 7 4 2 5 6 2 2 3 12
7 7 6 5 5 5 5 6 6 6 6 6 6 6 6 5 6 6 4 3 3 1 2 6 8 12 12 11 11 11 12 8 1 1 5 5 6 6 6 8 6 6 5 9 11
9 9 8 8 7 7 7 7 7 8 7 7 6 6 6 5 7 8 6 4 2 2 2 7 10 12 12 12 14 12 9 6 3 4 5 8 8 5 9 13 20 9 6 8 12
12 11 10 10 10 9 9 9 8 9 8 7 6 6 5 3 1 5 4 6 2 2 2 5 10 13 12 14 15 13 12 8 6 8 9 11 10 8 9 13 11 2 9 7 11
13 13 13 12 13 12 11 11 10 9 9 8 7 7 5 4 8 7 6 7 7 5 3 5 10 13 11 12 12 18 11 11 10 11 12 12 10 10 10 11 10 3 6 6 9
15 15 15 14 14 13 14 13 12 10 10 10 8 7 6 3 9 8 7 9 10 8 7 9 10 12 10 13 19 7 17 16 13 13 15 12 13 12 6 7 5 5 5 4 6
16 15 15 15 15 15 15 14 14 12 11 10 10 10 8 11 10 9 8 8 9 11 10 12 11 14 5 13 15 18 14 14 14 12 10 13 16 13 4 2 6 6 5 8 9
16 15 15 16 15 15 15 14 14 13 12 12 12 12 11 10 11 10 10 8 9 12 14 14 17 13 12 9 10 15 15 19 13 9 8 8 8 7 5 4 5 6 6 9 10
15 14 14 14 13 13 13 12 12 12 12 12 12 11 10 13 14 13 13 12 10 12 17 18 16 13 9 12 11 14 18 19 5 6 8 7 12 6 2 4 5 7 9 10 12
15 15 15 14 13 12 11 10 10 10 9 9 11 9 14 10 12 15 15 14 11 12 14 15 15 11 14 15 18 15 18 11 11 6 8 10 12 10 7 7 6 9 9 11 13
15 16 16 16 15 13 13 12 11 11 11 10 8 12 12 14 16 15 14 13 12 12 12 13 14 19 17 15 17 14 14 11 7 11 11 12 9 11 9 7 8 10 11 10 13
16 16 16 16 16 14 14 13 14 15 15 12 15 17 21 17 12 16 16 14 14 14 13 13 21 17 16 16 17 17 15 15 14 12 11 13 15 14 12 10 10 11 11 11 10
19 18 17 17 16 16 14 15 14 15 18 13 19 18 19 21 19 17 16 14 14 15 16 19 3 13 18 17 16 16 16 14 15 9 13 16 21 19 9 10 7 9 10 10 11
23 22 21 19 18 15 15 12 10 10 10 14 13 17 18 16 23 19 20 16 16 15 15 18 18 11 11 19 16 16 14 14 14 15 20 11 19 12 10 7 9 12 9 10 11
25 25 24 21 19 12 15 9 5 3 6 11 11 17 13 13 7 21 23 22 16 14 17 15 12 19 17 16 16 15 9 12 14 17 17 16 11 5 11 12 6 7 10 8 11
19 18 21 21 19 17 12 9 7 6 13 8 10 11 12 15 12 11 22 24 16 16 17 19 11 13 16 14 15 14 12 10 12 15 19 18 20 9 5 5 5 5 7 8 5
21 18 16 18 16 14 12 10 8 15 5 12 10 10 13 15 15 17 23 28 23 20 20 17 21 13 13 16 15 15 16 15 12 15 15 10 8 12 6 7 4 8 6 6 7
23 20 17 16 19 15 14 11 17 9 22 7 9 12 15 15 17 16 21 28 26 20 17 19 19 21 18 18 16 21 20 20 12 5 6 10 11 4 7 7 12 8 7 9 7
23 21 16 15 18 18 19 21 19 18 11 12 12 12 16 15 13 18 22 25 25 25 19 14 17 9 19 17 21 15 24 23 23 18 15 18 6 6 4 10 8 6 9 7 8
20 18 14 14 19 22 21 26 17 15 8 13 15 14 17 15 21 18 21 21 24 22 21 13 17 12 15 16 19 22 14 19 20 15 12 16 11 5 12 12 9 8 8 9 10
16 9 20 14 19 25 27 23 20 16 15 13 14 13 18 11 16 22 20 16 21 23 19 19 10 13 13 18 19 19 21 19 23 20 12 12 7 8 8 10 12 10 9 9 10
12 8 21 17 22 22 25 23 17 18 18 17 15 17 15 15 15 17 17 18 17 21 20 20 16 20 16 15 15 20 19 21 20 17 16 13 12 6 2 8 12 11 11 10 7
11 13 20 17 19 22 21 22 22 18 16 17 19 16 16 17 14 16 17 8 14 15 16 20 18 18 19 17 15 16 21 22 23 20 14 9 28 13 10 9 11 10 9 11 13
9 6 15 18 21 17 22 25 23 19 20 19 16 18 17 17 18 12 19 16 15 15 18 16 19 22 20 13 9 20 18 22 20 22 22 16 13 12 15 20 10 8 8 11 11
5 9 11 9 20 22 20 18 24 23 19 20 20 19 18 19 19 21 13 18 15 18 16 19 19 18 22 13 11 9 17 21 23 24 24 17 21 24 5 8 3 7 10 7 10
8 11 12 17 11 15 23 23 18 22 18 21 22 19 21 20 19 18 16 20 16 19 18 19 19 19 22 19 14 14 17 18 19 23 23 22 20 12 26 14 7 6 11 10 14
14 16 15 13 16 17 19 21 21 18 22 19 17 19 16 20 19 19 11 14 15 11 22 21 20 20 21 18 23 19 21 23 23 22 19 16 4 11 13 4 8 9 7 15 12
Wind_Direction
259 262 267 267 281 290 294 302 307 304 301 301 309 306 306 302 300 293 315 342 311 268 206 190 178 176 181 191 212 245 231 189 83 312 69 22 10 26 246 248 219 251 305 262 328
254 260 265 265 269 278 286 291 296 296 296 299 301 300 299 295 292 284 282 301 327 327 189 171 175 176 183 198 214 218 252 331 97 357 311 323 327 315 290 236 255 245 283 327 327
257 258 261 267 268 273 280 284 288 291 292 295 298 293 293 297 298 280 265 255 305 323 225 179 173 177 196 201 208 227 264 336 330 292 301 303 307 309 289 285 287 156 352 343 330
265 266 266 270 271 269 269 274 278 284 287 289 290 284 284 284 256 294 253 226 240 280 237 205 191 191 199 215 215 235 240 276 267 280 295 292 298 293 290 303 327 328 301 327 329
270 272 273 273 275 275 275 274 272 273 279 278 282 283 280 269 262 279 258 234 244 249 221 214 202 198 211 220 224 233 236 260 267 285 291 286 282 280 277 288 304 235 292 304 318
267 269 271 273 274 275 275 275 273 268 268 270 270 270 268 259 269 269 263 246 245 242 224 205 200 202 238 227 226 261 250 257 267 273 290 289 272 275 260 270 223 228 281 248 230
261 264 268 270 271 273 273 273 272 269 264 261 262 262 255 254 264 263 254 257 253 234 229 209 204 211 240 234 231 238 255 267 267 261 270 284 280 274 231 169 186 182 194 197 210
261 260 259 261 266 269 272 274 271 267 263 256 255 256 252 254 254 255 256 259 251 237 222 216 215 214 237 227 247 245 249 258 240 246 263 281 83 138 120 130 185 184 201 211 219
264 264 263 261 259 262 264 269 272 267 261 259 257 259 262 253 252 251 254 253 241 234 227 231 218 213 233 236 246 231 249 225 206 248 241 262 294 335 207 201 207 205 210 218 214
266 267 265 263 261 257 256 258 265 268 263 262 258 258 259 262 246 246 246 247 247 239 237 229 221 217 228 226 238 237 217 242 250 243 251 265 258 262 233 222 229 224 227 223 222
263 267 269 270 269 266 264 266 273 285 251 220 233 226 243 247 243 240 237 235 231 230 214 226 219 224 228 235 242 268 264 270 240 248 265 258 272 259 232 234 237 232 234 235 225
259 262 267 271 273 273 272 266 267 262 261 253 238 240 240 248 240 234 228 212 211 213 216 226 231 230 236 235 243 245 249 251 253 247 254 262 268 259 223 227 242 245 240 245 244
260 263 267 269 273 273 273 276 275 276 281 260 249 246 243 242 233 222 229 208 217 221 223 219 235 230 224 234 235 237 241 248 248 234 256 263 266 252 257 209 228 238 241 245 244
260 262 265 268 269 267 269 270 275 283 283 244 251 232 235 233 229 211 233 208 219 224 225 235 230 243 223 230 227 239 240 246 249 251 264 211 286 210 224 251 250 257 245 242 241
262 261 262 261 258 257 258 257 244 243 268 165 201 219 216 194 217 208 216 203 214 226 213 229 227 227 234 228 220 233 240 239 246 248 256 265 251 248 242 260 243 245 244 218 231
271 266 258 255 253 247 246 229 189 220 243 219 216 211 203 214 227 217 203 199 220 222 230 222 239 225 229 226 224 227 238 241 238 246 247 236 249 278 331 246 344 214 209 206 216
270 269 266 248 227 237 220 190 219 232 203 222 218 209 216 219 209 205 196 196 204 206 220 232 232 240 222 223 225 210 208 222 219 227 235 173 227 273 281 301 269 220 201 189 194
272 268 260 253 232 216 200 196 232 245 227 217 210 225 227 210 210 213 204 206 211 217 241 217 222 227 222 215 213 217 219 233 221 280 182 205 235 225 230 266 288 205 188 208 197
268 273 265 244 224 206 194 213 220 233 230 234 230 236 221 212 222 210 213 217 219 214 231 240 246 232 221 227 214 211 225 232 270 278 269 197 222 204 274 261 242 185 181 205 187
268 266 267 239 212 201 206 222 227 241 224 222 227 232 228 217 213 212 213 223 221 221 221 238 260 214 225 223 222 226 226 227 236 262 275 238 259 271 179 180 181 176 178 190 186
258 263 245 232 207 199 217 226 233 236 227 227 230 243 228 230 226 229 226 226 216 214 220 226 235 223 190 210 210 213 224 231 233 231 275 259 236 172 295 173 172 172 173 183 190
240 215 249 234 207 217 226 224 227 232 238 226 230 226 230 228 234 229 222 224 218 209 217 219 225 242 211 228 226 227 222 228 238 233 263 338 350 115 95 159 160 174 167 175 194
222 211 263 226 213 223 234 231 230 231 226 232 227 232 226 226 234 226 221 213 190 200 217 212 223 232 242 222 220 234 235 225 230 249 264 148 249 210 246 190 159 176 200 177 199
226 236 232 226 221 234 228 231 227 231 221 229 224 226 227 225 222 237 220 227 222 210 223 208 216 228 222 248 239 211 234 225 232 239 244 212 269 277 194 161 171 203 234 222 227
234 224 225 219 233 228 222 225 232 226 229 216 222 218 221 226 225 228 226 223 220 220 212 204 224 232 249 256 257 262 215 227 227 242 254 265 281 250 255 158 262 234 271 219 209
223 230 232 232 237 213 223 224 226 221 220 216 221 227 224 228 222 224 225 225 222 221 214 219 233 241 253 244 245 243 245 249 249 241 251 273 296 279 136 181 255 248 272 243 217
250 235 232 227 237 229 230 228 223 214 220 219 224 221 220 226 223 222 238 219 217 222 216 221 228 238 246 239 247 226 239 241 244 251 257 267 222 137 155 200 258 247 240 243 246